Starlink 32246

operational
NORAD ID: 60432 Int'l Des: 2024-144 Owner: SPXS Country: US Constellation: starlink
LEOCIRCULAR

Über Starlink 32246

Beschreibung wird geladen...

Live-Position

3D-Globus wird geladen...

Nächste Überflüge

Höhenverlauf

Altitude vs Time

uPlot chart will show altitude changes over time

Zweizeiliger Elementsatz

1 60432U 24144H 25303.81430366 -.00000356 00000-0 10522-6 0 9995
2 60432 53.1614 100.4617 0001248 90.6630 269.4514 15.30190296 69423
Epoch: 30. Okt. 2025 • Age: 7 hours

Aktueller Status

Höhe 479.5 km
Geschwindigkeit 7.63 km/s
Subsatellitenpunkt 46.53°N, 79.93°E
Startdatum 12. Aug. 2024
Alter 1.2 years
Typ internet

Technische Details

Klassifizierung Payload
Masse 730.00 kg
Trockenmasse 700.00 kg
Gesamtmasse 730.00 kg
Länge 0.30 m
Durchmesser 4.10 m
Spannweite 29.00 m
Form Box + pan
Hersteller SPXS
Bus-Typ Starlink V2M
Phasenstatus In Orbit
Besitzer/Staat SPXS/US

Große Konstellationen

Loading constellations...